Time,TemperatureF,DewpointF,PressureIn,WindDirection,WindDirectionDegrees,WindSpeedMPH,WindSpeedGustMPH,Humidity,HourlyPrecipIn,Conditions,Clouds,dailyrainin,SoftwareType,DateUTC
2013-11-06 00:04:00,31.2,29.9,29.96,NNW,335,0.0,0.0,95,0.00,,SKC,0.00,VWS V14.01,2013-11-06 06:04:00,
2013-11-06 00:09:00,31.2,29.9,29.95,NNW,335,0.0,0.0,95,0.00,,SKC,0.00,VWS V14.01,2013-11-06 06:09:00,
2013-11-06 00:14:00,31.2,29.9,29.96,NNW,335,0.0,0.0,95,0.00,,SKC,0.00,VWS V14.01,2013-11-06 06:14:00,
2013-11-06 00:19:00,31.2,29.9,29.96,NNW,335,0.0,0.0,95,0.00,,SKC,0.00,VWS V14.01,2013-11-06 06:19:00,
2013-11-06 00:24:00,31.1,29.8,29.96,NNW,335,0.0,0.0,95,0.00,,SKC,0.00,VWS V14.01,2013-11-06 06:24:00,
2013-11-06 00:29:00,31.1,29.8,29.96,NNW,335,0.0,0.0,95,0.00,,SKC,0.00,VWS V14.01,2013-11-06 06:29:00,
2013-11-06 00:30:00,31.1,29.8,29.96,NNW,335,0.0,0.0,95,0.00,,SKC,0.00,VWS V14.01,2013-11-06 06:30:00,
2013-11-06 00:34:00,31.0,29.7,29.95,NNW,335,0.0,0.0,95,0.00,,SKC,0.00,VWS V14.01,2013-11-06 06:34:00,
2013-11-06 00:39:00,30.9,29.6,29.96,NNW,335,0.0,0.0,95,0.00,,SKC,0.00,VWS V14.01,2013-11-06 06:39:00,
2013-11-06 00:44:00,30.7,29.4,29.96,NNW,335,0.0,0.0,95,0.00,,SKC,0.00,VWS V14.01,2013-11-06 06:44:00,
2013-11-06 00:49:00,30.7,29.4,29.96,NNW,335,0.0,0.0,95,0.00,,SKC,0.00,VWS V14.01,2013-11-06 06:49:00,
2013-11-06 00:54:00,30.6,29.3,29.96,NNW,335,0.0,0.0,95,0.00,,SKC,0.00,VWS V14.01,2013-11-06 06:54:00,
2013-11-06 00:59:00,30.6,29.3,29.96,NNW,335,0.0,0.0,95,0.00,,SKC,0.00,VWS V14.01,2013-11-06 06:59:00,
2013-11-06 01:00:00,30.5,29.2,29.96,NNW,335,0.0,0.0,95,0.00,,SKC,0.00,VWS V14.01,2013-11-06 07:00:00,
2013-11-06 01:04:00,30.5,29.2,29.95,NNW,335,0.0,0.0,95,0.00,,SKC,0.00,VWS V14.01,2013-11-06 07:04:00,
2013-11-06 01:10:00,30.5,29.2,29.96,NNW,335,0.0,0.0,95,0.00,,SKC,0.00,VWS V14.01,2013-11-06 07:10:00,
2013-11-06 01:15:00,30.4,29.1,29.96,NNW,335,0.0,0.0,95,0.00,,SKC,0.00,VWS V14.01,2013-11-06 07:15:00,
2013-11-06 01:20:00,30.5,29.2,29.95,NNW,335,0.0,0.0,95,0.00,,SKC,0.00,VWS V14.01,2013-11-06 07:20:00,
2013-11-06 01:25:00,30.5,29.2,29.96,NNW,335,0.0,0.0,95,0.00,,SKC,0.00,VWS V14.01,2013-11-06 07:25:00,
2013-11-06 01:30:00,30.4,29.1,29.96,NNW,335,0.0,0.0,95,0.00,,SKC,0.00,VWS V14.01,2013-11-06 07:30:00,
2013-11-06 01:35:00,30.3,29.0,29.96,NNW,335,0.0,0.0,95,0.00,,SKC,0.00,VWS V14.01,2013-11-06 07:35:00,
2013-11-06 01:40:00,30.3,29.0,29.96,NNW,335,0.0,0.0,95,0.00,,SKC,0.00,VWS V14.01,2013-11-06 07:40:00,
2013-11-06 01:45:00,30.2,28.9,29.96,NNW,335,0.0,0.0,95,0.00,,SKC,0.00,VWS V14.01,2013-11-06 07:45:00,
2013-11-06 01:50:00,30.2,28.9,29.96,NNW,335,0.0,0.0,95,0.00,,SKC,0.00,VWS V14.01,2013-11-06 07:50:00,
2013-11-06 01:55:00,30.2,28.9,29.97,NNW,335,0.0,0.0,95,0.00,,SKC,0.00,VWS V14.01,2013-11-06 07:55:00,
2013-11-06 02:00:00,30.1,28.8,29.96,NNW,335,0.0,0.0,95,0.00,,SKC,0.00,VWS V14.01,2013-11-06 08:00:00,
2013-11-06 02:05:00,30.1,28.8,29.96,NNW,335,0.0,0.0,95,0.00,,SKC,0.00,VWS V14.01,2013-11-06 08:05:00,
2013-11-06 02:10:00,30.1,28.8,29.96,NNW,335,0.0,0.0,95,0.00,,SKC,0.00,VWS V14.01,2013-11-06 08:10:00,
2013-11-06 02:15:00,30.2,28.9,29.96,NNW,335,0.0,0.0,95,0.00,,SKC,0.00,VWS V14.01,2013-11-06 08:15:00,
2013-11-06 02:20:00,30.2,28.9,29.96,NNW,335,0.0,0.0,95,0.00,,SKC,0.00,VWS V14.01,2013-11-06 08:20:00,
2013-11-06 02:25:00,30.1,28.8,29.96,NNW,335,0.0,0.0,95,0.00,,SKC,0.00,VWS V14.01,2013-11-06 08:25:00,
2013-11-06 02:30:00,30.1,28.8,29.96,NNW,335,0.0,0.0,95,0.00,,SKC,0.00,VWS V14.01,2013-11-06 08:30:00,
2013-11-06 02:35:00,30.1,28.8,29.96,NNW,335,0.0,0.0,95,0.00,,SKC,0.00,VWS V14.01,2013-11-06 08:35:00,
2013-11-06 02:40:00,30.1,28.8,29.95,NNW,335,0.0,0.0,95,0.00,,SKC,0.00,VWS V14.01,2013-11-06 08:40:00,
2013-11-06 02:45:00,30.2,28.9,29.95,NNW,335,0.0,0.0,95,0.00,,SKC,0.00,VWS V14.01,2013-11-06 08:45:00,
2013-11-06 02:50:00,30.2,28.9,29.95,NNW,335,0.0,0.0,95,0.00,,SKC,0.00,VWS V14.01,2013-11-06 08:50:00,
2013-11-06 02:55:00,30.2,28.9,29.95,NNW,335,0.0,0.0,95,0.00,,SKC,0.00,VWS V14.01,2013-11-06 08:55:00,
2013-11-06 03:00:00,30.2,28.9,29.96,NNW,335,0.0,0.0,95,0.00,,SKC,0.00,VWS V14.01,2013-11-06 09:00:00,
2013-11-06 03:05:00,30.2,28.9,29.96,NNW,335,0.0,0.0,95,0.00,,SKC,0.00,VWS V14.01,2013-11-06 09:05:00,
2013-11-06 03:10:00,30.2,28.9,29.96,NNW,335,0.0,0.0,95,0.00,,SKC,0.00,VWS V14.01,2013-11-06 09:10:00,
2013-11-06 03:15:00,30.1,28.8,29.96,NNW,335,0.0,0.0,95,0.00,,SKC,0.00,VWS V14.01,2013-11-06 09:15:00,
2013-11-06 03:20:00,30.1,28.8,29.95,NNW,335,0.0,0.0,95,0.00,,SKC,0.00,VWS V14.01,2013-11-06 09:20:00,
2013-11-06 03:25:00,30.0,28.7,29.95,NNW,335,0.0,0.0,95,0.00,,SKC,0.00,VWS V14.01,2013-11-06 09:25:00,
2013-11-06 03:30:00,30.0,28.7,29.95,NNW,335,0.0,0.0,95,0.00,,SKC,0.00,VWS V14.01,2013-11-06 09:30:00,
2013-11-06 03:35:00,30.0,28.7,29.95,NNW,335,0.0,0.0,95,0.00,,SKC,0.00,VWS V14.01,2013-11-06 09:35:00,
2013-11-06 03:40:00,29.9,28.6,29.95,NNW,335,0.0,0.0,95,0.00,,SKC,0.00,VWS V14.01,2013-11-06 09:40:00,
2013-11-06 03:45:00,29.9,28.6,29.94,NNW,335,0.0,0.0,95,0.00,,SKC,0.00,VWS V14.01,2013-11-06 09:45:00,
2013-11-06 03:50:00,29.9,28.6,29.95,NNW,335,0.0,0.0,95,0.00,,SKC,0.00,VWS V14.01,2013-11-06 09:50:00,
2013-11-06 03:55:00,29.9,28.6,29.95,NNW,335,0.0,0.0,95,0.00,,SKC,0.00,VWS V14.01,2013-11-06 09:55:00,
2013-11-06 04:00:00,29.9,28.6,29.95,NNW,335,0.0,0.0,95,0.00,,SKC,0.00,VWS V14.01,2013-11-06 10:00:00,
2013-11-06 04:06:00,29.9,28.6,29.95,NNW,335,0.0,0.0,95,0.00,,SKC,0.00,VWS V14.01,2013-11-06 10:06:00,
2013-11-06 04:11:00,29.8,28.5,29.95,NNW,335,0.0,0.0,95,0.00,,SKC,0.00,VWS V14.01,2013-11-06 10:11:00,
2013-11-06 04:16:00,29.8,28.5,29.95,NNW,335,0.0,0.0,95,0.00,,SKC,0.00,VWS V14.01,2013-11-06 10:16:00,
2013-11-06 04:21:00,29.7,28.5,29.95,NNW,335,0.0,0.0,95,0.00,,SKC,0.00,VWS V14.01,2013-11-06 10:21:00,
2013-11-06 04:26:00,29.7,28.5,29.95,NNW,335,0.0,0.0,95,0.00,,SKC,0.00,VWS V14.01,2013-11-06 10:26:00,
2013-11-06 04:30:00,29.6,28.4,29.94,NNW,335,0.0,0.0,95,0.00,,SKC,0.00,VWS V14.01,2013-11-06 10:30:00,
2013-11-06 04:31:00,29.6,28.4,29.94,NNW,335,0.0,0.0,95,0.00,,SKC,0.00,VWS V14.01,2013-11-06 10:31:00,
2013-11-06 04:36:00,29.6,28.4,29.94,NNW,335,0.0,0.0,95,0.00,,SKC,0.00,VWS V14.01,2013-11-06 10:36:00,
2013-11-06 04:41:00,29.6,28.4,29.94,NNW,335,0.0,0.0,95,0.00,,SKC,0.00,VWS V14.01,2013-11-06 10:41:00,
2013-11-06 04:46:00,29.6,28.4,29.94,NNW,335,0.0,0.0,95,0.00,,SKC,0.00,VWS V14.01,2013-11-06 10:46:00,
2013-11-06 04:51:00,29.6,28.4,29.94,NNW,335,0.0,0.0,95,0.00,,SKC,0.00,VWS V14.01,2013-11-06 10:51:00,
2013-11-06 04:56:00,29.7,28.5,29.94,NNW,335,0.0,0.0,95,0.00,,SKC,0.00,VWS V14.01,2013-11-06 10:56:00,
2013-11-06 05:00:00,29.6,28.4,29.94,NNW,335,0.0,0.0,95,0.00,,SKC,0.00,VWS V14.01,2013-11-06 11:00:00,
2013-11-06 05:01:00,29.6,28.4,29.94,NNW,335,0.0,0.0,95,0.00,,SKC,0.00,VWS V14.01,2013-11-06 11:01:00,
2013-11-06 05:06:00,29.6,28.4,29.95,NNW,335,0.0,0.0,95,0.00,,SKC,0.00,VWS V14.01,2013-11-06 11:06:00,
2013-11-06 05:11:00,29.6,28.4,29.95,NNW,335,0.0,0.0,95,0.00,,SKC,0.00,VWS V14.01,2013-11-06 11:11:00,
2013-11-06 05:16:00,29.6,28.4,29.95,NNW,335,0.0,0.0,95,0.00,,SKC,0.00,VWS V14.01,2013-11-06 11:16:00,
2013-11-06 05:21:00,29.6,28.4,29.95,NNW,335,0.0,0.0,95,0.00,,SKC,0.00,VWS V14.01,2013-11-06 11:21:00,
2013-11-06 05:26:00,29.6,28.4,29.94,NNW,335,0.0,0.0,95,0.00,,SKC,0.00,VWS V14.01,2013-11-06 11:26:00,
2013-11-06 05:30:00,29.6,28.4,29.94,NNW,335,0.0,0.0,95,0.00,,SKC,0.00,VWS V14.01,2013-11-06 11:30:00,
2013-11-06 05:31:00,29.6,28.4,29.95,NNW,335,0.0,0.0,95,0.00,,SKC,0.00,VWS V14.01,2013-11-06 11:31:00,
2013-11-06 05:36:00,29.7,28.5,29.95,NNW,335,0.0,0.0,95,0.00,,SKC,0.00,VWS V14.01,2013-11-06 11:36:00,
2013-11-06 05:41:00,29.6,28.4,29.95,NNW,335,0.0,0.0,95,0.00,,SKC,0.00,VWS V14.01,2013-11-06 11:41:00,
2013-11-06 05:46:00,29.6,28.4,29.95,NNW,335,0.0,0.0,95,0.00,,SKC,0.00,VWS V14.01,2013-11-06 11:46:00,
2013-11-06 05:51:00,29.5,28.2,29.94,NNW,335,0.0,0.0,95,0.00,,SKC,0.00,VWS V14.01,2013-11-06 11:51:00,
2013-11-06 05:56:00,29.5,28.2,29.94,NNW,335,0.0,0.0,95,0.00,,SKC,0.00,VWS V14.01,2013-11-06 11:56:00,
2013-11-06 06:00:00,29.4,28.1,29.94,NNW,335,0.0,0.0,95,0.00,,SKC,0.00,VWS V14.01,2013-11-06 12:00:00,
2013-11-06 06:01:00,29.4,28.1,29.94,NNW,335,0.0,0.0,95,0.00,,SKC,0.00,VWS V14.01,2013-11-06 12:01:00,
2013-11-06 06:06:00,29.3,28.0,29.94,NNW,335,0.0,0.0,95,0.00,,SKC,0.00,VWS V14.01,2013-11-06 12:06:00,
2013-11-06 06:11:00,29.3,28.0,29.94,NNW,335,0.0,0.0,95,0.00,,SKC,0.00,VWS V14.01,2013-11-06 12:11:00,
2013-11-06 06:16:00,29.2,28.0,29.94,NNW,335,0.0,0.0,95,0.00,,SKC,0.00,VWS V14.01,2013-11-06 12:16:00,
2013-11-06 06:21:00,29.2,28.0,29.94,NNW,335,0.0,0.0,95,0.00,,SKC,0.00,VWS V14.01,2013-11-06 12:21:00,
2013-11-06 06:26:00,29.1,27.9,29.95,NNW,335,0.0,0.0,95,0.00,,SKC,0.00,VWS V14.01,2013-11-06 12:26:00,
2013-11-06 06:30:00,29.0,27.8,29.95,NNW,335,0.0,0.0,95,0.00,,SKC,0.00,VWS V14.01,2013-11-06 12:30:00,
2013-11-06 06:32:00,29.0,27.8,29.95,NNW,335,0.0,0.0,95,0.00,,SKC,0.00,VWS V14.01,2013-11-06 12:32:00,
2013-11-06 06:37:00,28.9,27.6,29.94,NNW,335,0.0,0.0,95,0.00,,SKC,0.00,VWS V14.01,2013-11-06 12:37:00,
2013-11-06 06:42:00,28.8,27.5,29.94,NNW,335,0.0,0.0,95,0.00,,SKC,0.00,VWS V14.01,2013-11-06 12:42:00,
2013-11-06 06:47:00,28.6,27.4,29.94,NNW,335,0.0,0.0,95,0.00,,SKC,0.00,VWS V14.01,2013-11-06 12:47:00,
2013-11-06 06:52:00,28.4,27.1,29.95,NNW,335,0.0,0.0,95,0.00,,SKC,0.00,VWS V14.01,2013-11-06 12:52:00,
2013-11-06 06:57:00,28.2,27.0,29.95,NNW,335,0.0,0.0,95,0.00,,SKC,0.00,VWS V14.01,2013-11-06 12:57:00,
2013-11-06 07:00:00,28.1,26.9,29.95,NNW,335,0.0,0.0,95,0.00,,SKC,0.00,VWS V14.01,2013-11-06 13:00:00,
2013-11-06 07:02:00,28.1,26.9,29.94,NNW,335,0.0,0.0,95,0.00,,SKC,0.00,VWS V14.01,2013-11-06 13:02:00,
2013-11-06 07:07:00,28.0,26.8,29.94,NNW,335,0.0,0.0,95,0.00,,SKC,0.00,VWS V14.01,2013-11-06 13:07:00,
2013-11-06 07:12:00,27.9,26.7,29.94,NNW,335,0.0,0.0,95,0.00,,SKC,0.00,VWS V14.01,2013-11-06 13:12:00,
2013-11-06 07:17:00,27.9,26.7,29.94,NNW,335,0.0,0.0,95,0.00,,SKC,0.00,VWS V14.01,2013-11-06 13:17:00,
2013-11-06 07:22:00,27.8,26.6,29.95,NNW,335,0.0,0.0,95,0.00,,SKC,0.00,VWS V14.01,2013-11-06 13:22:00,
2013-11-06 07:27:00,27.6,26.1,29.95,NNW,335,0.0,0.0,94,0.00,,SKC,0.00,VWS V14.01,2013-11-06 13:27:00,
2013-11-06 07:30:00,27.6,26.1,29.95,NNW,335,0.0,0.0,94,0.00,,SKC,0.00,VWS V14.01,2013-11-06 13:30:00,
2013-11-06 07:32:00,27.5,26.0,29.95,NNW,335,0.0,0.0,94,0.00,,SKC,0.00,VWS V14.01,2013-11-06 13:32:00,
2013-11-06 07:37:00,27.5,26.0,29.95,NNW,335,0.0,0.0,94,0.00,,SKC,0.00,VWS V14.01,2013-11-06 13:37:00,
2013-11-06 07:42:00,27.5,26.0,29.95,NNW,335,0.0,0.0,94,0.00,,SKC,0.00,VWS V14.01,2013-11-06 13:42:00,
2013-11-06 07:47:00,27.5,26.0,29.95,NNW,335,0.0,0.0,94,0.00,,SKC,0.00,VWS V14.01,2013-11-06 13:47:00,
2013-11-06 07:52:00,27.5,26.0,29.96,NNW,335,0.0,0.0,94,0.00,,SKC,0.00,VWS V14.01,2013-11-06 13:52:00,
2013-11-06 07:57:00,27.6,26.1,29.96,NNW,335,0.0,0.0,94,0.00,,SKC,0.00,VWS V14.01,2013-11-06 13:57:00,
2013-11-06 08:00:00,27.8,26.3,29.96,NNW,335,0.0,0.0,94,0.00,,SKC,0.00,VWS V14.01,2013-11-06 14:00:00,
2013-11-06 08:02:00,27.8,26.6,29.96,NNW,335,0.0,0.0,95,0.00,,SKC,0.00,VWS V14.01,2013-11-06 14:02:00,
2013-11-06 08:07:00,28.0,26.8,29.96,NNW,335,0.0,0.0,95,0.00,,SKC,0.00,VWS V14.01,2013-11-06 14:07:00,
2013-11-06 08:12:00,28.2,27.0,29.96,NNW,335,0.0,0.0,95,0.00,,SKC,0.00,VWS V14.01,2013-11-06 14:12:00,
2013-11-06 08:17:00,28.4,27.1,29.96,NNW,335,0.0,0.0,95,0.00,,SKC,0.00,VWS V14.01,2013-11-06 14:17:00,
2013-11-06 08:22:00,28.5,27.2,29.96,NNW,335,0.0,0.0,95,0.00,,SKC,0.00,VWS V14.01,2013-11-06 14:22:00,
2013-11-06 08:27:00,28.7,27.5,29.96,NNW,335,0.0,0.0,95,0.00,,SKC,0.00,VWS V14.01,2013-11-06 14:27:00,
2013-11-06 08:30:00,28.8,27.5,29.96,NNW,335,0.0,0.0,95,0.00,,SKC,0.00,VWS V14.01,2013-11-06 14:30:00,
2013-11-06 08:32:00,28.8,27.3,29.96,NNW,335,0.0,0.0,94,0.00,,SKC,0.00,VWS V14.01,2013-11-06 14:32:00,
2013-11-06 08:37:00,29.0,27.8,29.97,NNW,335,0.0,0.0,95,0.00,,SKC,0.00,VWS V14.01,2013-11-06 14:37:00,
2013-11-06 08:42:00,29.2,28.0,29.96,NNW,335,0.0,0.0,95,0.00,,SKC,0.00,VWS V14.01,2013-11-06 14:42:00,
2013-11-06 08:47:00,29.3,27.8,29.97,NNW,335,0.0,0.0,94,0.00,,SKC,0.00,VWS V14.01,2013-11-06 14:47:00,
2013-11-06 08:53:00,29.4,27.9,29.97,NNW,335,0.0,0.0,94,0.00,,SKC,0.00,VWS V14.01,2013-11-06 14:53:00,
2013-11-06 08:58:00,29.6,28.1,29.96,NNW,335,0.0,0.0,94,0.01,,SKC,0.01,VWS V14.01,2013-11-06 14:58:00,
2013-11-06 09:00:00,29.9,28.4,29.96,NNW,335,0.0,0.0,94,0.01,,SKC,0.01,VWS V14.01,2013-11-06 15:00:00,
2013-11-06 09:03:00,29.9,28.4,29.96,NNW,335,0.0,0.0,94,0.02,,SKC,0.02,VWS V14.01,2013-11-06 15:03:00,
2013-11-06 09:08:00,30.1,28.6,29.96,NNW,334,0.0,0.0,94,0.03,,SKC,0.03,VWS V14.01,2013-11-06 15:08:00,
2013-11-06 09:13:00,30.4,28.9,29.96,NNW,334,0.0,0.0,94,0.04,,SKC,0.04,VWS V14.01,2013-11-06 15:13:00,
2013-11-06 09:18:00,30.6,29.1,29.96,NNW,334,0.0,0.0,94,0.05,,SKC,0.05,VWS V14.01,2013-11-06 15:18:00,
2013-11-06 09:23:00,30.8,29.3,29.97,NNW,334,0.0,0.0,94,0.06,,SKC,0.06,VWS V14.01,2013-11-06 15:23:00,
2013-11-06 09:28:00,31.2,29.4,29.97,NNW,334,0.0,4.0,93,0.07,,SKC,0.07,VWS V14.01,2013-11-06 15:28:00,
2013-11-06 09:30:00,31.3,29.5,29.97,NNW,334,5.0,8.0,93,0.08,,SKC,0.08,VWS V14.01,2013-11-06 15:30:00,
2013-11-06 09:33:00,31.4,29.6,29.97,NNW,334,0.0,5.0,93,0.08,,SKC,0.08,VWS V14.01,2013-11-06 15:33:00,
2013-11-06 09:38:00,31.6,29.8,29.97,NNW,334,0.0,5.0,93,0.09,,SKC,0.09,VWS V14.01,2013-11-06 15:38:00,
2013-11-06 09:43:00,31.9,29.8,29.97,NNW,333,4.0,6.0,92,0.10,,SKC,0.10,VWS V14.01,2013-11-06 15:43:00,
2013-11-06 09:48:00,32.0,29.9,29.97,NNW,333,0.0,6.0,92,0.11,,SKC,0.11,VWS V14.01,2013-11-06 15:48:00,
2013-11-06 09:53:00,32.3,30.0,29.97,NNW,333,0.0,6.0,91,0.11,,SKC,0.11,VWS V14.01,2013-11-06 15:53:00,
2013-11-06 09:58:00,32.5,30.2,29.97,NNW,333,0.0,6.0,91,0.12,,SKC,0.12,VWS V14.01,2013-11-06 15:58:00,
2013-11-06 10:00:00,32.7,30.4,29.96,NNW,333,0.0,6.0,91,0.13,,SKC,0.13,VWS V14.01,2013-11-06 16:00:00,
2013-11-06 10:03:00,32.8,30.5,29.96,NNW,333,0.0,3.0,91,0.12,,SKC,0.13,VWS V14.01,2013-11-06 16:03:00,
2013-11-06 10:08:00,33.0,30.4,29.97,NNW,333,1.0,5.0,90,0.13,,SKC,0.14,VWS V14.01,2013-11-06 16:08:00,
2013-11-06 10:13:00,33.2,30.6,29.97,NNW,333,2.0,5.0,90,0.13,,SKC,0.14,VWS V14.01,2013-11-06 16:13:00,
2013-11-06 10:18:00,33.4,30.8,29.97,NNW,333,0.0,5.0,90,0.14,,SKC,0.15,VWS V14.01,2013-11-06 16:18:00,
2013-11-06 10:23:00,33.6,30.7,29.96,NNW,333,0.0,5.0,89,0.15,,SKC,0.16,VWS V14.01,2013-11-06 16:23:00,
2013-11-06 10:28:00,33.9,31.0,29.96,NNW,332,0.0,5.0,89,0.16,,SKC,0.17,VWS V14.01,2013-11-06 16:28:00,
2013-11-06 10:30:00,33.9,30.7,29.96,NNW,331,1.0,6.0,88,0.16,,SKC,0.17,VWS V14.01,2013-11-06 16:30:00,
2013-11-06 10:33:00,34.0,30.8,29.96,NNW,331,0.0,1.0,88,0.10,,SKC,0.18,VWS V14.01,2013-11-06 16:33:00,
2013-11-06 10:38:00,34.2,31.0,29.96,NNW,331,0.0,1.0,88,0.10,,SKC,0.18,VWS V14.01,2013-11-06 16:38:00,
2013-11-06 10:43:00,34.3,31.1,29.96,NW,323,4.0,6.0,88,0.11,,SKC,0.19,VWS V14.01,2013-11-06 16:43:00,
2013-11-06 10:48:00,34.4,30.9,29.96,NW,323,4.0,6.0,87,0.11,,SKC,0.19,VWS V14.01,2013-11-06 16:48:00,
2013-11-06 10:53:00,34.5,30.8,29.97,NW,321,0.0,6.0,86,0.11,,SKC,0.19,VWS V14.01,2013-11-06 16:53:00,
2013-11-06 10:58:00,34.7,31.0,29.97,NW,321,0.0,6.0,86,0.11,,SKC,0.19,VWS V14.01,2013-11-06 16:58:00,
2013-11-06 11:00:00,34.5,30.5,29.97,NW,319,0.0,6.0,85,0.12,,SKC,0.20,VWS V14.01,2013-11-06 17:00:00,
2013-11-06 11:03:00,34.4,30.4,29.97,NW,319,0.0,1.0,85,0.07,,SKC,0.20,VWS V14.01,2013-11-06 17:03:00,
2013-11-06 11:08:00,34.4,30.4,29.97,NW,319,0.0,3.0,85,0.07,,SKC,0.20,VWS V14.01,2013-11-06 17:08:00,
2013-11-06 11:13:00,34.4,30.6,29.97,NW,318,0.0,3.0,86,0.08,,SKC,0.21,VWS V14.01,2013-11-06 17:13:00,
2013-11-06 11:18:00,34.6,30.6,29.97,NW,318,1.0,4.0,85,0.08,,SKC,0.21,VWS V14.01,2013-11-06 17:18:00,
2013-11-06 11:23:00,34.8,30.8,29.97,NW,315,1.0,6.0,85,0.09,,SKC,0.22,VWS V14.01,2013-11-06 17:23:00,
2013-11-06 11:28:00,35.2,31.1,29.97,NW,315,0.0,6.0,85,0.09,,SKC,0.22,VWS V14.01,2013-11-06 17:28:00,
2013-11-06 11:30:00,35.3,31.0,29.97,NW,314,4.0,6.0,84,0.09,,SKC,0.22,VWS V14.01,2013-11-06 17:30:00,
2013-11-06 11:33:00,35.3,31.0,29.97,NW,313,2.0,4.0,84,0.06,,SKC,0.23,VWS V14.01,2013-11-06 17:33:00,
2013-11-06 11:38:00,35.4,30.8,29.97,NW,309,0.0,7.0,83,0.06,,SKC,0.23,VWS V14.01,2013-11-06 17:38:00,
2013-11-06 11:43:00,35.6,31.0,29.97,NW,309,1.0,7.0,83,0.06,,SKC,0.23,VWS V14.01,2013-11-06 17:43:00,
2013-11-06 11:48:00,35.8,30.9,29.97,NW,309,0.0,7.0,82,0.07,,SKC,0.24,VWS V14.01,2013-11-06 17:48:00,
2013-11-06 11:54:00,36.0,31.0,29.97,NW,309,0.0,7.0,82,0.07,,SKC,0.24,VWS V14.01,2013-11-06 17:54:00,
2013-11-06 11:59:00,36.1,30.2,29.97,NW,306,3.0,7.0,79,0.07,,SKC,0.24,VWS V14.01,2013-11-06 17:59:00,
2013-11-06 12:00:00,36.1,30.2,29.97,NW,305,0.0,7.0,79,0.08,,SKC,0.25,VWS V14.01,2013-11-06 18:00:00,
2013-11-06 12:04:00,36.2,30.6,29.97,NW,305,0.0,2.0,80,0.05,,SKC,0.25,VWS V14.01,2013-11-06 18:04:00,
2013-11-06 12:09:00,36.4,30.5,29.97,NW,304,1.0,5.0,79,0.05,,SKC,0.25,VWS V14.01,2013-11-06 18:09:00,
2013-11-06 12:14:00,36.7,30.2,29.97,NW,304,2.0,5.0,77,0.05,,SKC,0.25,VWS V14.01,2013-11-06 18:14:00,
2013-11-06 12:19:00,37.0,29.8,29.97,WNW,296,5.0,8.0,75,0.05,,SKC,0.25,VWS V14.01,2013-11-06 18:19:00,
2013-11-06 12:24:00,37.2,29.4,29.97,WNW,286,7.0,8.0,73,0.05,,SKC,0.25,VWS V14.01,2013-11-06 18:24:00,
2013-11-06 12:29:00,37.3,29.1,29.97,West,281,0.0,9.0,72,0.05,,SKC,0.25,VWS V14.01,2013-11-06 18:29:00,
2013-11-06 12:30:00,37.5,29.3,29.96,West,278,0.0,9.0,72,0.05,,SKC,0.25,VWS V14.01,2013-11-06 18:30:00,
2013-11-06 12:34:00,37.7,29.5,29.97,West,279,0.0,5.0,72,0.04,,SKC,0.26,VWS V14.01,2013-11-06 18:34:00,
2013-11-06 12:39:00,38.0,29.8,29.96,West,278,0.0,5.0,72,0.04,,SKC,0.26,VWS V14.01,2013-11-06 18:39:00,
2013-11-06 12:44:00,38.6,30.0,29.96,West,278,0.0,5.0,71,0.04,,SKC,0.26,VWS V14.01,2013-11-06 18:44:00,
2013-11-06 12:49:00,39.0,30.4,29.96,West,278,2.0,5.0,71,0.04,,SKC,0.26,VWS V14.01,2013-11-06 18:49:00,
2013-11-06 12:54:00,39.5,30.5,29.96,West,277,0.0,6.0,70,0.04,,SKC,0.26,VWS V14.01,2013-11-06 18:54:00,
2013-11-06 12:59:00,39.8,30.1,29.96,West,278,2.0,7.0,68,0.04,,SKC,0.26,VWS V14.01,2013-11-06 18:59:00,
2013-11-06 13:00:00,39.7,29.7,29.96,West,278,0.0,7.0,67,0.04,,SKC,0.26,VWS V14.01,2013-11-06 19:00:00,
2013-11-06 13:04:00,39.7,30.4,29.96,West,279,0.0,5.0,69,0.01,,SKC,0.26,VWS V14.01,2013-11-06 19:04:00,
2013-11-06 13:09:00,39.5,29.8,29.96,West,279,0.0,5.0,68,0.02,,SKC,0.27,VWS V14.01,2013-11-06 19:09:00,
2013-11-06 13:14:00,39.5,30.5,29.96,West,279,0.0,5.0,70,0.02,,SKC,0.27,VWS V14.01,2013-11-06 19:14:00,
2013-11-06 13:19:00,39.5,29.8,29.96,West,278,0.0,7.0,68,0.02,,SKC,0.27,VWS V14.01,2013-11-06 19:19:00,
2013-11-06 13:24:00,39.5,29.1,29.96,West,270,4.0,7.0,66,0.02,,SKC,0.27,VWS V14.01,2013-11-06 19:24:00,
2013-11-06 13:29:00,39.6,29.2,29.96,WNW,292,4.0,13.0,66,0.02,,SKC,0.27,VWS V14.01,2013-11-06 19:29:00,
2013-11-06 13:30:00,39.6,29.2,29.96,WNW,292,2.0,13.0,66,0.02,,SKC,0.27,VWS V14.01,2013-11-06 19:30:00,
2013-11-06 13:34:00,39.6,29.9,29.96,WNW,292,2.0,6.0,68,0.02,,SKC,0.27,VWS V14.01,2013-11-06 19:34:00,
2013-11-06 13:39:00,40.1,30.0,29.96,WNW,292,0.0,6.0,67,0.02,,SKC,0.27,VWS V14.01,2013-11-06 19:39:00,
2013-11-06 13:44:00,40.6,29.8,29.96,WNW,292,0.0,7.0,65,0.02,,SKC,0.27,VWS V14.01,2013-11-06 19:44:00,
2013-11-06 13:49:00,40.8,29.6,29.96,WNW,301,6.0,11.0,64,0.02,,SKC,0.27,VWS V14.01,2013-11-06 19:49:00,
2013-11-06 13:54:00,40.7,29.1,29.97,WNW,294,4.0,11.0,63,0.02,,SKC,0.27,VWS V14.01,2013-11-06 19:54:00,
2013-11-06 13:59:00,40.7,29.5,29.97,WNW,293,7.0,11.0,64,0.02,,SKC,0.27,VWS V14.01,2013-11-06 19:59:00,
2013-11-06 14:00:00,40.7,29.5,29.97,WNW,293,0.0,11.0,64,0.02,,SKC,0.27,VWS V14.01,2013-11-06 20:00:00,
2013-11-06 14:04:00,40.9,29.7,29.97,WNW,293,1.0,6.0,64,0.01,,SKC,0.27,VWS V14.01,2013-11-06 20:04:00,
2013-11-06 14:09:00,41.1,30.2,29.97,WNW,293,1.0,6.0,65,0.01,,SKC,0.27,VWS V14.01,2013-11-06 20:09:00,
2013-11-06 14:15:00,41.3,29.7,29.97,WNW,293,2.0,7.0,63,0.01,,SKC,0.27,VWS V14.01,2013-11-06 20:15:00,
2013-11-06 14:20:00,41.1,28.7,29.97,WNW,300,1.0,11.0,61,0.01,,SKC,0.27,VWS V14.01,2013-11-06 20:20:00,
2013-11-06 14:25:00,40.9,28.9,29.97,WNW,283,5.0,11.0,62,0.01,,SKC,0.27,VWS V14.01,2013-11-06 20:25:00,
2013-11-06 14:30:00,40.5,28.1,29.97,WNW,287,3.0,11.0,61,0.01,,SKC,0.27,VWS V14.01,2013-11-06 20:30:00,
2013-11-06 14:35:00,40.4,28.4,29.97,West,280,5.0,8.0,62,0.00,,SKC,0.27,VWS V14.01,2013-11-06 20:35:00,
2013-11-06 14:40:00,40.4,28.4,29.97,West,273,4.0,13.0,62,0.00,,SKC,0.27,VWS V14.01,2013-11-06 20:40:00,
2013-11-06 14:45:00,40.6,27.8,29.97,WNW,286,5.0,13.0,60,0.00,,SKC,0.27,VWS V14.01,2013-11-06 20:45:00,
2013-11-06 14:50:00,41.1,29.1,29.97,WNW,290,7.0,13.0,62,0.00,,SKC,0.27,VWS V14.01,2013-11-06 20:50:00,
2013-11-06 14:55:00,41.2,29.6,29.98,WNW,290,4.0,13.0,63,0.00,,SKC,0.27,VWS V14.01,2013-11-06 20:55:00,
2013-11-06 15:00:00,41.2,28.8,29.98,West,276,9.0,13.0,61,0.00,,SKC,0.27,VWS V14.01,2013-11-06 21:00:00,
2013-11-06 15:05:00,40.7,29.1,29.98,WNW,286,0.0,9.0,63,0.00,,SKC,0.27,VWS V14.01,2013-11-06 21:05:00,
2013-11-06 15:10:00,40.5,28.1,29.98,WNW,290,5.0,10.0,61,0.00,,SKC,0.27,VWS V14.01,2013-11-06 21:10:00,
2013-11-06 15:15:00,40.3,28.3,29.98,WNW,296,5.0,10.0,62,0.00,,SKC,0.27,VWS V14.01,2013-11-06 21:15:00,
2013-11-06 15:20:00,40.2,28.2,29.98,West,279,1.0,10.0,62,0.00,,SKC,0.27,VWS V14.01,2013-11-06 21:20:00,
2013-11-06 15:25:00,39.9,28.3,29.99,WNW,287,3.0,10.0,63,0.00,,SKC,0.27,VWS V14.01,2013-11-06 21:25:00,
2013-11-06 15:30:00,39.4,27.9,29.99,WNW,282,2.0,10.0,63,0.00,,SKC,0.27,VWS V14.01,2013-11-06 21:30:00,
2013-11-06 15:35:00,39.1,28.3,29.99,WNW,283,4.0,6.0,65,0.00,,SKC,0.27,VWS V14.01,2013-11-06 21:35:00,
2013-11-06 15:40:00,38.8,28.4,29.99,WNW,286,2.0,7.0,66,0.00,,SKC,0.27,VWS V14.01,2013-11-06 21:40:00,
2013-11-06 15:45:00,38.4,28.0,29.99,WNW,292,6.0,11.0,66,0.00,,SKC,0.27,VWS V14.01,2013-11-06 21:45:00,
2013-11-06 15:50:00,38.2,28.6,29.99,WNW,293,0.0,11.0,68,0.00,,SKC,0.27,VWS V14.01,2013-11-06 21:50:00,
2013-11-06 15:55:00,38.0,28.8,30.00,WSW,244,2.0,11.0,69,0.00,,SKC,0.27,VWS V14.01,2013-11-06 21:55:00,
2013-11-06 16:00:00,37.7,28.1,30.00,West,266,7.0,11.0,68,0.00,,SKC,0.27,VWS V14.01,2013-11-06 22:00:00,
2013-11-06 16:05:00,37.4,28.2,30.00,WSW,257,0.0,7.0,69,0.00,,SKC,0.27,VWS V14.01,2013-11-06 22:05:00,
2013-11-06 16:10:00,37.2,28.3,30.00,West,262,0.0,9.0,70,0.00,,SKC,0.27,VWS V14.01,2013-11-06 22:10:00,
2013-11-06 16:15:00,37.0,28.1,30.00,West,259,2.0,9.0,70,0.00,,SKC,0.27,VWS V14.01,2013-11-06 22:15:00,
2013-11-06 16:20:00,36.9,28.0,30.00,West,259,0.0,9.0,70,0.00,,SKC,0.27,VWS V14.01,2013-11-06 22:20:00,
2013-11-06 16:25:00,36.7,28.2,30.00,West,259,0.0,9.0,71,0.00,,SKC,0.27,VWS V14.01,2013-11-06 22:25:00,
2013-11-06 16:30:00,36.6,28.4,30.00,West,270,0.0,9.0,72,0.00,,SKC,0.27,VWS V14.01,2013-11-06 22:30:00,
2013-11-06 16:35:00,36.4,27.9,30.00,West,270,0.0,7.0,71,0.00,,SKC,0.27,VWS V14.01,2013-11-06 22:35:00,
2013-11-06 16:40:00,36.4,28.2,30.00,West,271,0.0,7.0,72,0.00,,SKC,0.27,VWS V14.01,2013-11-06 22:40:00,
2013-11-06 16:45:00,36.3,28.5,30.00,West,271,0.0,7.0,73,0.00,,SKC,0.27,VWS V14.01,2013-11-06 22:45:00,
2013-11-06 16:51:00,36.1,28.0,30.01,West,270,2.0,7.0,72,0.00,,SKC,0.27,VWS V14.01,2013-11-06 22:51:00,
2013-11-06 16:56:00,36.0,28.2,30.01,West,270,0.0,7.0,73,0.00,,SKC,0.27,VWS V14.01,2013-11-06 22:56:00,
2013-11-06 17:00:00,35.9,28.4,30.01,West,270,0.0,7.0,74,0.00,,SKC,0.27,VWS V14.01,2013-11-06 23:00:00,
2013-11-06 17:01:00,35.9,28.4,30.01,West,270,0.0,7.0,74,0.00,,SKC,0.27,VWS V14.01,2013-11-06 23:01:00,
2013-11-06 17:06:00,35.8,28.3,30.01,West,270,0.0,0.0,74,0.00,,SKC,0.27,VWS V14.01,2013-11-06 23:06:00,
2013-11-06 17:11:00,35.6,28.1,30.01,West,270,0.0,0.0,74,0.00,,SKC,0.27,VWS V14.01,2013-11-06 23:11:00,
2013-11-06 17:16:00,35.4,28.0,30.01,West,270,0.0,0.0,74,0.00,,SKC,0.27,VWS V14.01,2013-11-06 23:16:00,
2013-11-06 17:21:00,35.3,27.9,30.01,West,270,0.0,0.0,74,0.00,,SKC,0.27,VWS V14.01,2013-11-06 23:21:00,
2013-11-06 17:26:00,35.2,28.1,30.01,West,270,0.0,0.0,75,0.00,,SKC,0.27,VWS V14.01,2013-11-06 23:26:00,
2013-11-06 17:30:00,35.0,27.9,30.01,West,270,0.0,0.0,75,0.00,,SKC,0.27,VWS V14.01,2013-11-06 23:30:00,
2013-11-06 17:31:00,35.0,27.9,30.01,West,270,0.0,0.0,75,0.00,,SKC,0.27,VWS V14.01,2013-11-06 23:31:00,
2013-11-06 17:36:00,34.8,27.7,30.01,West,270,0.0,0.0,75,0.00,,SKC,0.27,VWS V14.01,2013-11-06 23:36:00,
2013-11-06 17:41:00,34.6,27.5,30.01,West,270,0.0,0.0,75,0.00,,SKC,0.27,VWS V14.01,2013-11-06 23:41:00,
2013-11-06 17:46:00,34.4,27.3,30.02,West,270,0.0,4.0,75,0.00,,SKC,0.27,VWS V14.01,2013-11-06 23:46:00,
2013-11-06 17:51:00,34.3,27.2,30.02,West,270,0.0,4.0,75,0.00,,SKC,0.27,VWS V14.01,2013-11-06 23:51:00,
2013-11-06 17:56:00,34.1,27.3,30.02,West,270,0.0,4.0,76,0.00,,SKC,0.27,VWS V14.01,2013-11-06 23:56:00,
2013-11-06 18:00:00,33.9,27.1,30.02,West,270,0.0,4.0,76,0.00,,SKC,0.27,VWS V14.01,2013-11-07 00:00:00,
2013-11-06 18:01:00,33.9,27.1,30.02,West,270,0.0,4.0,76,0.00,,SKC,0.27,VWS V14.01,2013-11-07 00:01:00,
2013-11-06 18:06:00,33.7,27.3,30.02,West,270,0.0,0.0,77,0.00,,SKC,0.27,VWS V14.01,2013-11-07 00:06:00,
2013-11-06 18:11:00,33.5,27.1,30.02,West,270,0.0,0.0,77,0.00,,SKC,0.27,VWS V14.01,2013-11-07 00:11:00,
2013-11-06 18:16:00,33.3,26.9,30.02,West,270,0.0,0.0,77,0.00,,SKC,0.27,VWS V14.01,2013-11-07 00:16:00,
2013-11-06 18:21:00,33.2,27.1,30.02,West,270,0.0,0.0,78,0.00,,SKC,0.27,VWS V14.01,2013-11-07 00:21:00,
2013-11-06 18:26:00,33.1,26.7,30.03,West,270,0.0,0.0,77,0.00,,SKC,0.27,VWS V14.01,2013-11-07 00:26:00,
2013-11-06 18:30:00,33.1,27.6,30.03,West,270,0.0,0.0,80,0.00,,SKC,0.27,VWS V14.01,2013-11-07 00:30:00,
2013-11-06 18:31:00,33.1,27.6,30.02,West,270,0.0,0.0,80,0.00,,SKC,0.27,VWS V14.01,2013-11-07 00:31:00,
2013-11-06 18:36:00,33.0,27.2,30.03,West,270,0.0,0.0,79,0.00,,SKC,0.27,VWS V14.01,2013-11-07 00:36:00,
2013-11-06 18:41:00,32.9,26.8,30.03,West,270,0.0,0.0,78,0.00,,SKC,0.27,VWS V14.01,2013-11-07 00:41:00,
2013-11-06 18:46:00,32.7,26.3,30.03,West,270,0.0,0.0,77,0.00,,SKC,0.27,VWS V14.01,2013-11-07 00:46:00,
2013-11-06 18:51:00,32.5,26.4,30.03,West,270,0.0,0.0,78,0.00,,SKC,0.27,VWS V14.01,2013-11-07 00:51:00,
2013-11-06 18:56:00,32.4,26.3,30.03,West,270,0.0,0.0,78,0.00,,SKC,0.27,VWS V14.01,2013-11-07 00:56:00,
2013-11-06 19:00:00,32.5,26.4,30.03,West,270,0.0,0.0,78,0.00,,SKC,0.27,VWS V14.01,2013-11-07 01:00:00,
2013-11-06 19:01:00,32.5,26.4,30.03,West,270,0.0,0.0,78,0.00,,SKC,0.27,VWS V14.01,2013-11-07 01:01:00,
2013-11-06 19:07:00,32.6,26.5,30.03,West,270,0.0,1.0,78,0.00,,SKC,0.27,VWS V14.01,2013-11-07 01:07:00,
2013-11-06 19:12:00,32.8,27.0,30.03,West,270,0.0,5.0,79,0.00,,SKC,0.27,VWS V14.01,2013-11-07 01:12:00,
2013-11-06 19:17:00,32.7,27.2,30.03,West,270,0.0,5.0,80,0.00,,SKC,0.27,VWS V14.01,2013-11-07 01:17:00,
2013-11-06 19:22:00,32.7,27.2,30.04,West,270,0.0,5.0,80,0.00,,SKC,0.27,VWS V14.01,2013-11-07 01:22:00,
2013-11-06 19:27:00,32.6,27.4,30.03,West,270,0.0,5.0,81,0.00,,SKC,0.27,VWS V14.01,2013-11-07 01:27:00,
2013-11-06 19:30:00,32.5,27.6,30.04,West,270,0.0,5.0,82,0.00,,SKC,0.27,VWS V14.01,2013-11-07 01:30:00,
2013-11-06 19:32:00,32.5,27.6,30.04,West,270,0.0,0.0,82,0.00,,SKC,0.27,VWS V14.01,2013-11-07 01:32:00,
2013-11-06 19:37:00,32.4,27.5,30.04,West,270,0.0,1.0,82,0.00,,SKC,0.27,VWS V14.01,2013-11-07 01:37:00,
2013-11-06 19:42:00,32.3,27.7,30.04,West,270,2.0,4.0,83,0.00,,SKC,0.27,VWS V14.01,2013-11-07 01:42:00,
2013-11-06 19:47:00,32.3,27.7,30.04,West,270,0.0,6.0,83,0.00,,SKC,0.27,VWS V14.01,2013-11-07 01:47:00,
2013-11-06 19:52:00,32.3,28.0,30.04,West,270,0.0,6.0,84,0.00,,SKC,0.27,VWS V14.01,2013-11-07 01:52:00,
2013-11-06 19:57:00,32.3,28.0,30.04,West,270,2.0,6.0,84,0.00,,SKC,0.27,VWS V14.01,2013-11-07 01:57:00,
2013-11-06 20:00:00,32.2,27.9,30.04,West,270,0.0,6.0,84,0.00,,SKC,0.27,VWS V14.01,2013-11-07 02:00:00,
2013-11-06 20:02:00,32.2,27.9,30.03,West,269,2.0,6.0,84,0.00,,SKC,0.27,VWS V14.01,2013-11-07 02:02:00,
2013-11-06 20:07:00,32.1,28.1,30.04,West,269,0.0,6.0,85,0.00,,SKC,0.27,VWS V14.01,2013-11-07 02:07:00,
2013-11-06 20:12:00,32.1,28.1,30.03,West,269,0.0,6.0,85,0.00,,SKC,0.27,VWS V14.01,2013-11-07 02:12:00,
2013-11-06 20:17:00,31.9,27.9,30.03,West,269,2.0,6.0,85,0.00,,SKC,0.27,VWS V14.01,2013-11-07 02:17:00,
2013-11-06 20:22:00,31.8,28.1,30.03,West,268,0.0,6.0,86,0.00,,SKC,0.27,VWS V14.01,2013-11-07 02:22:00,
2013-11-06 20:27:00,31.7,28.0,30.03,West,268,0.0,6.0,86,0.00,,SKC,0.27,VWS V14.01,2013-11-07 02:27:00,
2013-11-06 20:30:00,31.7,28.0,30.03,West,268,0.0,6.0,86,0.00,,SKC,0.27,VWS V14.01,2013-11-07 02:30:00,
2013-11-06 20:32:00,31.7,28.0,30.04,West,268,0.0,0.0,86,0.00,,SKC,0.27,VWS V14.01,2013-11-07 02:32:00,
2013-11-06 20:37:00,31.5,27.8,30.04,West,268,0.0,0.0,86,0.00,,SKC,0.27,VWS V14.01,2013-11-07 02:37:00,
2013-11-06 20:42:00,31.5,28.1,30.04,West,268,0.0,0.0,87,0.00,,SKC,0.27,VWS V14.01,2013-11-07 02:42:00,
2013-11-06 20:47:00,31.4,28.0,30.05,West,268,0.0,2.0,87,0.00,,SKC,0.27,VWS V14.01,2013-11-07 02:47:00,
2013-11-06 20:52:00,31.3,27.9,30.05,West,268,0.0,2.0,87,0.00,,SKC,0.27,VWS V14.01,2013-11-07 02:52:00,
2013-11-06 20:57:00,31.3,27.9,30.05,West,268,5.0,5.0,87,0.00,,SKC,0.27,VWS V14.01,2013-11-07 02:57:00,
2013-11-06 21:00:00,31.4,28.3,30.05,West,268,0.0,5.0,88,0.00,,SKC,0.27,VWS V14.01,2013-11-07 03:00:00,
2013-11-06 21:02:00,31.4,28.3,30.04,West,268,0.0,0.0,88,0.00,,SKC,0.27,VWS V14.01,2013-11-07 03:02:00,
2013-11-06 21:07:00,31.4,28.3,30.05,West,268,0.0,5.0,88,0.00,,SKC,0.27,VWS V14.01,2013-11-07 03:07:00,
2013-11-06 21:12:00,31.4,28.3,30.05,West,268,0.0,5.0,88,0.00,,SKC,0.27,VWS V14.01,2013-11-07 03:12:00,
2013-11-06 21:17:00,31.5,28.4,30.05,West,268,0.0,5.0,88,0.00,,SKC,0.27,VWS V14.01,2013-11-07 03:17:00,
2013-11-06 21:23:00,31.5,28.4,30.05,West,268,0.0,5.0,88,0.00,,SKC,0.27,VWS V14.01,2013-11-07 03:23:00,
2013-11-06 21:28:00,31.6,28.5,30.05,West,268,0.0,5.0,88,0.00,,SKC,0.27,VWS V14.01,2013-11-07 03:28:00,
2013-11-06 21:30:00,31.7,28.6,30.04,West,268,1.0,5.0,88,0.00,,SKC,0.27,VWS V14.01,2013-11-07 03:30:00,
2013-11-06 21:33:00,31.7,28.6,30.04,West,268,0.0,1.0,88,0.00,,SKC,0.27,VWS V14.01,2013-11-07 03:33:00,
2013-11-06 21:38:00,31.7,28.6,30.04,West,268,0.0,4.0,88,0.00,,SKC,0.27,VWS V14.01,2013-11-07 03:38:00,
2013-11-06 21:43:00,31.7,28.6,30.04,West,268,0.0,4.0,88,0.00,,SKC,0.27,VWS V14.01,2013-11-07 03:43:00,
2013-11-06 21:48:00,31.7,28.6,30.04,West,268,0.0,4.0,88,0.00,,SKC,0.27,VWS V14.01,2013-11-07 03:48:00,
2013-11-06 21:53:00,31.6,28.5,30.04,West,268,0.0,4.0,88,0.00,,SKC,0.27,VWS V14.01,2013-11-07 03:53:00,
2013-11-06 21:58:00,31.6,28.5,30.04,West,268,0.0,4.0,88,0.00,,SKC,0.27,VWS V14.01,2013-11-07 03:58:00,
2013-11-06 22:00:00,31.6,28.5,30.05,West,268,0.0,4.0,88,0.00,,SKC,0.27,VWS V14.01,2013-11-07 04:00:00,
2013-11-06 22:03:00,31.5,28.4,30.04,West,268,0.0,0.0,88,0.00,,SKC,0.27,VWS V14.01,2013-11-07 04:03:00,
2013-11-06 22:08:00,31.5,28.4,30.05,West,268,0.0,1.0,88,0.00,,SKC,0.27,VWS V14.01,2013-11-07 04:08:00,
2013-11-06 22:13:00,31.5,28.4,30.05,West,268,1.0,4.0,88,0.00,,SKC,0.27,VWS V14.01,2013-11-07 04:13:00,
2013-11-06 22:18:00,31.5,28.4,30.05,West,268,0.0,4.0,88,0.00,,SKC,0.27,VWS V14.01,2013-11-07 04:18:00,
2013-11-06 22:23:00,31.4,28.3,30.05,West,268,0.0,4.0,88,0.00,,SKC,0.27,VWS V14.01,2013-11-07 04:23:00,
2013-11-06 22:28:00,31.3,28.2,30.05,West,268,0.0,4.0,88,0.00,,SKC,0.27,VWS V14.01,2013-11-07 04:28:00,
2013-11-06 22:30:00,31.2,28.1,30.05,West,268,0.0,4.0,88,0.00,,SKC,0.27,VWS V14.01,2013-11-07 04:30:00,
2013-11-06 22:33:00,31.2,28.3,30.05,West,268,0.0,0.0,89,0.00,,SKC,0.27,VWS V14.01,2013-11-07 04:33:00,
2013-11-06 22:38:00,31.1,28.2,30.05,West,268,0.0,0.0,89,0.00,,SKC,0.27,VWS V14.01,2013-11-07 04:38:00,
2013-11-06 22:43:00,31.1,28.2,30.05,West,268,0.0,0.0,89,0.00,,SKC,0.27,VWS V14.01,2013-11-07 04:43:00,
2013-11-06 22:48:00,31.0,28.1,30.05,West,268,0.0,0.0,89,0.00,,SKC,0.27,VWS V14.01,2013-11-07 04:48:00,
2013-11-06 22:53:00,31.0,28.1,30.05,West,268,0.0,1.0,89,0.00,,SKC,0.27,VWS V14.01,2013-11-07 04:53:00,
2013-11-06 22:58:00,31.0,28.1,30.05,West,268,0.0,1.0,89,0.00,,SKC,0.27,VWS V14.01,2013-11-07 04:58:00,
2013-11-06 23:00:00,31.2,28.6,30.05,West,268,0.0,1.0,90,0.00,,SKC,0.27,VWS V14.01,2013-11-07 05:00:00,
2013-11-06 23:01:00,31.2,28.6,30.05,West,268,0.0,1.0,90,0.00,,SKC,0.27,VWS V14.01,2013-11-07 05:01:00,
2013-11-06 23:02:00,31.2,28.6,30.05,West,268,0.0,0.0,90,0.00,,SKC,0.27,VWS V14.01,2013-11-07 05:02:00,
2013-11-06 23:04:00,31.2,28.6,30.05,West,268,0.0,0.0,90,0.00,,SKC,0.27,VWS V14.01,2013-11-07 05:04:00,
2013-11-06 23:06:00,31.2,28.3,30.05,West,268,0.0,0.0,89,0.00,,SKC,0.27,VWS V14.01,2013-11-07 05:06:00,
2013-11-06 23:11:00,31.1,28.2,30.05,West,268,0.0,0.0,89,0.00,,SKC,0.27,VWS V14.01,2013-11-07 05:11:00,
2013-11-06 23:17:00,31.1,28.2,30.05,West,268,0.0,0.0,89,0.00,,SKC,0.27,VWS V14.01,2013-11-07 05:17:00,
2013-11-06 23:20:00,31.1,28.2,30.05,West,268,0.0,0.0,89,0.00,,SKC,0.27,VWS V14.01,2013-11-07 05:20:00,
2013-11-06 23:25:00,31.0,28.1,30.05,West,268,0.0,0.0,89,0.00,,SKC,0.27,VWS V14.01,2013-11-07 05:25:00,
2013-11-06 23:30:00,30.8,28.0,30.05,West,268,0.0,0.0,89,0.00,,SKC,0.27,VWS V14.01,2013-11-07 05:30:00,
2013-11-06 23:35:00,30.6,27.8,30.05,West,268,0.0,0.0,89,0.00,,SKC,0.27,VWS V14.01,2013-11-07 05:35:00,
2013-11-06 23:40:00,30.4,27.5,30.05,West,268,0.0,0.0,89,0.00,,SKC,0.27,VWS V14.01,2013-11-07 05:40:00,
2013-11-06 23:45:00,30.1,27.3,30.06,West,268,0.0,0.0,89,0.00,,SKC,0.27,VWS V14.01,2013-11-07 05:45:00,
2013-11-06 23:50:00,29.8,27.0,30.06,West,268,0.0,0.0,89,0.00,,SKC,0.27,VWS V14.01,2013-11-07 05:50:00,
2013-11-06 23:55:00,29.8,27.2,30.06,West,268,0.0,0.0,90,0.00,,SKC,0.27,VWS V14.01,2013-11-07 05:55:00,